This is the latest recevied weather packets stored in our database for station/object KC9Q. If no packets are shown the sender has not sent any weather packets the latest 10 day(s).
| Time | Temp. | Humidity | Pressure | Rain* | Wind** | Luminosity | Snow |
|---|---|---|---|---|---|---|---|
| 1777926066 | 26.67° C | 33% | 1007.1 hPa | 0 mm | - | 714 W/m² | - |
| 1777925762 | 26.67° C | 33% | 1007.2 hPa | 0 mm | - | 711 W/m² | - |
| 1777925460 | 27.22° C | 34% | 1007.2 hPa | 0 mm | - | 751 W/m² | - |
| 1777925156 | 27.22° C | 33% | 1007.2 hPa | 0 mm | - | 761 W/m² | - |
| 1777924853 | 27.22° C | 34% | 1007.3 hPa | 0 mm | - | 774 W/m² | - |
| 1777924550 | 26.67° C | 34% | 1007 hPa | 0 mm | - | 780 W/m² | - |
| 1777924246 | 27.22° C | 33% | 1007.3 hPa | 0 mm | - | 818 W/m² | - |
| 1777923943 | 27.22° C | 35% | 1007.4 hPa | 0 mm | - | 774 W/m² | - |
| 1777923638 | 27.22° C | 34% | 1007.3 hPa | 0 mm | - | 807 W/m² | - |
| 1777923335 | 27.22° C | 33% | 1007.5 hPa | 0 mm | - | 836 W/m² | - |
| 1777923034 | 27.22° C | 35% | 1007.5 hPa | 0 mm | - | 815 W/m² | - |
| 1777922732 | 27.22° C | 34% | 1007.5 hPa | 0 mm | - | 817 W/m² | - |
| 1777922430 | 27.22° C | 34% | 1007.7 hPa | 0 mm | - | 854 W/m² | - |
| 1777922127 | 27.22° C | 33% | 1007.7 hPa | 0 mm | - | 858 W/m² | - |
| 1777921823 | 26.67° C | 34% | 1007.8 hPa | 0 mm | - | 873 W/m² | - |
| 1777921519 | 26.67° C | 36% | 1007.7 hPa | 0 mm | - | 883 W/m² | - |
| 1777921215 | 27.22° C | 34% | 1008 hPa | 0 mm | - | 865 W/m² | - |
| 1777920913 | 27.22° C | 32% | 1008 hPa | 0 mm | - | 905 W/m² | - |
| 1777920609 | 26.67° C | 34% | 1008.1 hPa | 0 mm | - | 918 W/m² | - |
| 1777920304 | 26.67° C | 34% | 1008.1 hPa | 0 mm | - | 895 W/m² | - |
| 1777920000 | 26.67° C | 34% | 1008.1 hPa | 0 mm | - | 927 W/m² | - |
| 1777919697 | 26.67° C | 33% | 1008.4 hPa | 0 mm | - | 922 W/m² | - |
| 1777919395 | 26.67° C | 35% | 1008.4 hPa | 0 mm | - | 926 W/m² | - |
| 1777919092 | 26.67° C | 35% | 1008.1 hPa | 0 mm | - | 938 W/m² | - |
| 1777918789 | 26.67° C | 34% | 1008.5 hPa | 0 mm | - | 937 W/m² | - |
* Rain latest hour (hover to see other rain measurements)
** Current wind speed in m/s (hover to see current wind gust speed)